User: anonymous   Login
Location: Unspecified
(0.0000°N, 0.0000°E)
Time: 16:50:00
(UTC+02:00)
Language:

JASON 2 - Orbit

View from above orbital plane
View from above orbital plane
View from above satellite
View from above satellite

Ground track
Ground track

The orbit data is extracted from the following two-line orbital elements,

1 33105U 08032A   19295.10424979 -.00000052  00000-0  40985-4 0  9995
2 33105  66.0371 120.4646 0007566 265.6131 200.1138 12.87622438530914
Epoch (UTC): 22 October 2019 02:30:07
Eccentricity: 0.0007566
inclination: 66.0371°
perigee height: 1305 km
apogee height: 1317 km
right ascension of ascending node: 120.4646°
argument of perigee: 265.6131°
revolutions per day: 12.87622438
mean anomaly at epoch: 200.1138°
orbit number at epoch: 53091

The dashed part of the orbit path shows where the satellite is in the earth's shadow,  

DLR